Malaga, Spain

9:46 PM CEST on August 17, 2017 (GMT +0200)
Malaga

Weather History for LEMG - November, 2012

Change the Weather History Date:

Friday, November 23, 2012

  Actual Average Record
Temperature  
Mean Temperature 60 °F -  
Max Temperature 66 °F 61 °F 74 °F (2014)
Min Temperature 53 °F 47 °F 32 °F (1999)
Degree Days  
Heating Degree Days 6    
Growing Degree Days 10 (Base 50)    
Moisture  
Dew Point 55 °F    
Average Humidity 91    
Maximum Humidity 100    
Minimum Humidity 67    
Precipitation  
Precipitation 0.00 in 0.13 in - ()
Sea Level Pressure  
Sea Level Pressure 30.16 in    
Wind  
Wind Speed 5 mph ()    
Max Wind Speed 9 mph    
Max Gust Speed -    
Visibility 6.1 miles    
Events      
Averages and records for this station are not official NWS values.
T = Trace of Precipitation, MM = Missing Value Source: Averaged Metar Reports

Daily Weather History Graph

Daily Weather History Graph

Search for Another Location

Airport or City:

Trip Planner

Search our weather history database for the weather conditions in past years. The results will help you decide how hot, cold, wet, or windy it might be!

Date:

Astronomy

Nov. 23, 2012 Rise Set
Actual Time 8:04 AM CET 6:04 PM CET
Civil Twilight 7:36 AM CET 6:32 PM CET
Nautical Twilight 7:04 AM CET 7:04 PM CET
Astronomical Twilight 6:33 AM CET 7:34 PM CET
Moon 3:06 PM CET (11/23) 3:15 AM CET (11/23)
Length of Visible Light 10h 56m
Length of Day
10h 00m
Waxing Gibbous, 77% of the Moon is Illuminated
Nov 23
Waxing Gibbous
Nov 28
Full
Dec 6
Last Quarter
Dec 13
New
Dec 20
First Quarter

Hourly Weather History & Observations

Time (CET) Temp. Dew Point Humidity Pressure Visibility Wind Dir Wind Speed Gust Speed Precip Events Conditions
12:00 AM 55.4 °F 53.6 °F 94% - 6.2 mi West 5.8 mph - N/A   Scattered Clouds
12:30 AM 53.6 °F 53.6 °F 100% 30.18 in 6.2 mi WNW 5.8 mph - N/A   Scattered Clouds
1:00 AM 55 °F 53 °F 92% 30.19 in 7 mi WNW 5.8 mph - -   Partly Cloudy
1:00 AM 53.6 °F 53.6 °F 100% 30.18 in 6.2 mi WNW 5.8 mph - N/A   Scattered Clouds
1:30 AM 53.6 °F 53.6 °F 100% 30.18 in 6.2 mi WNW 5.8 mph - N/A   Scattered Clouds
2:30 AM 55.4 °F 53.6 °F 94% 30.18 in 6.2 mi WNW 8.1 mph - N/A   Mostly Cloudy
3:00 AM 55.4 °F 53.6 °F 94% 30.18 in 6.2 mi WNW 6.9 mph - N/A   Mostly Cloudy
3:30 AM 53.6 °F 51.8 °F 94% 30.18 in 6.2 mi WNW 4.6 mph - N/A   Scattered Clouds
4:00 AM 53.6 °F 53.6 °F 100% 30.18 in 6.2 mi NW 2.3 mph - N/A   Scattered Clouds
4:30 AM 53.6 °F 53.6 °F 100% 30.18 in 6.2 mi WNW 3.5 mph - N/A   Scattered Clouds
5:00 AM 53.6 °F 53.6 °F 100% 30.15 in 6.2 mi WNW 4.6 mph - N/A   Scattered Clouds
5:30 AM 53.6 °F 53.6 °F 100% 30.15 in 6.2 mi WNW 5.8 mph - N/A   Scattered Clouds
6:00 AM 53.6 °F 53.6 °F 100% 30.15 in 6.2 mi WNW 6.9 mph - N/A   Scattered Clouds
6:30 AM 51.8 °F 51.8 °F 100% 30.15 in 6.2 mi WNW 6.9 mph - N/A   Scattered Clouds
7:00 AM 54 °F 52 °F 92% 30.18 in 7 mi WNW 6.9 mph - -   Partly Cloudy
7:00 AM 53.6 °F 51.8 °F 94% 30.15 in 6.2 mi WNW 6.9 mph - N/A   Scattered Clouds
7:30 AM 53.6 °F 51.8 °F 94% 30.15 in 6.2 mi WNW 4.6 mph - N/A   Scattered Clouds
8:00 AM 53.6 °F 53.6 °F 100% 30.18 in 4.3 mi WNW 6.9 mph - N/A   Mostly Cloudy
8:30 AM 53.6 °F 53.6 °F 100% 30.18 in 4.3 mi WNW 6.9 mph - N/A   Mostly Cloudy
9:00 AM 55.4 °F 53.6 °F 94% 30.18 in 4.3 mi WNW 5.8 mph - N/A   Mostly Cloudy
9:30 AM 55.4 °F 53.6 °F 94% 30.18 in 6.2 mi WNW 4.6 mph - N/A   Mostly Cloudy
10:00 AM 55.4 °F 55.4 °F 100% 30.18 in 5.6 mi NW 2.3 mph - N/A   Mostly Cloudy
10:30 AM 57.2 °F 55.4 °F 94% 30.18 in 5.6 mi NW 1.2 mph - N/A   Mostly Cloudy
11:00 AM 59.0 °F 57.2 °F 94% 30.21 in 5.0 mi Variable 2.3 mph - N/A   Mostly Cloudy
11:30 AM 62.6 °F 59.0 °F 88% 30.21 in 5.6 mi Variable 5.8 mph - N/A   Mostly Cloudy
12:00 PM 62.6 °F 57.2 °F 82% 30.21 in 6.2 mi ESE 9.2 mph - N/A   Mostly Cloudy
12:30 PM 62.6 °F 57.2 °F 82% 30.18 in 6.2 mi ESE 8.1 mph - N/A   Mostly Cloudy
1:00 PM 64 °F 56 °F 67% 30.19 in 6 mi East 8.1 mph - -   Partly Cloudy
1:00 PM 62.6 °F 57.2 °F 82% 30.18 in 6.2 mi East 8.1 mph - N/A   Mostly Cloudy
1:30 PM 62.6 °F 57.2 °F 82% 30.18 in 6.2 mi ESE 8.1 mph - N/A   Mostly Cloudy
2:00 PM 64.4 °F 57.2 °F 77% 30.15 in 6.2 mi ESE 8.1 mph - N/A   Mostly Cloudy
2:30 PM 64.4 °F 59.0 °F 83% 30.15 in 6.2 mi SE 6.9 mph - N/A   Mostly Cloudy
3:00 PM 64.4 °F 57.2 °F 77% 30.15 in 6.2 mi ESE 6.9 mph - N/A   Mostly Cloudy
3:30 PM 64.4 °F 59.0 °F 83% 30.12 in 6.2 mi ESE 6.9 mph - N/A   Mostly Cloudy
4:00 PM 64.4 °F 57.2 °F 77% 30.12 in 6.2 mi SE 6.9 mph - N/A   Mostly Cloudy
4:30 PM 62.6 °F 57.2 °F 82% 30.12 in 6.2 mi SE 4.6 mph - N/A   Mostly Cloudy
5:00 PM 62.6 °F 57.2 °F 82% 30.12 in 6.2 mi ESE 2.3 mph - N/A   Mostly Cloudy
5:30 PM 62.6 °F 57.2 °F 82% 30.12 in 6.2 mi SE 5.8 mph - N/A   Scattered Clouds
6:00 PM 60.8 °F 57.2 °F 88% 30.12 in 6.2 mi ESE 3.5 mph - N/A   Scattered Clouds
6:30 PM 59.0 °F 55.4 °F 88% 30.12 in 6.2 mi ESE 2.3 mph - N/A   Scattered Clouds
7:00 PM 62 °F 56 °F 73% 30.15 in 7 mi Calm Calm - -   Partly Cloudy
7:00 PM 60.8 °F 57.2 °F 88% 30.12 in 6.2 mi Calm Calm - N/A   Scattered Clouds
7:30 PM 59.0 °F 55.4 °F 88% 30.12 in 6.2 mi ESE 1.2 mph - N/A   Scattered Clouds
8:00 PM 59.0 °F 55.4 °F 88% 30.15 in 6.2 mi Calm Calm - N/A   Partly Cloudy
8:30 PM 57.2 °F 55.4 °F 94% 30.15 in 6.2 mi Calm Calm - N/A   Scattered Clouds
9:00 PM 55.4 °F 53.6 °F 94% 30.15 in 6.2 mi West 1.2 mph - N/A   Scattered Clouds
9:30 PM 55.4 °F 55.4 °F 100% 30.15 in 6.2 mi Calm Calm - N/A   Scattered Clouds
10:00 PM 55.4 °F 53.6 °F 94% 30.15 in 6.2 mi NW 1.2 mph - N/A   Scattered Clouds
10:30 PM 53.6 °F 51.8 °F 94% 30.15 in 6.2 mi Variable 1.2 mph - N/A   Scattered Clouds
11:00 PM 53.6 °F 53.6 °F 100% 30.15 in 6.2 mi WNW 3.5 mph - N/A   Scattered Clouds
11:30 PM 55.4 °F 53.6 °F 94% 30.18 in 6.2 mi Variable 2.3 mph - N/A   Scattered Clouds